Starlink 5670

operational
NORAD ID: 55341 Int'l Des: 2023-013 Owner: SPXS Country: US Constellation: starlink
LEOCIRCULAR

Über Starlink 5670

Beschreibung wird geladen...

Live-Position

3D-Globus wird geladen...

Nächste Überflüge

Höhenverlauf

Altitude vs Time

uPlot chart will show altitude changes over time

Zweizeiliger Elementsatz

1 55341U 23013L 26033.63447153 -.00000119 00000-0 62749-5 0 9999
2 55341 43.0042 131.0342 0001375 272.8174 87.2511 15.02533339166432
Epoch: 2. Feb. 2026 • Age: 12 hours

Aktueller Status

Höhe 562.9 km
Geschwindigkeit 7.58 km/s
Subsatellitenpunkt -19.17°S, 146.94°E
Startdatum 26. Jan. 2023
Alter 3 years
Typ internet

Technische Details

Klassifizierung Payload
Masse 305.00 kg
Trockenmasse 290.00 kg
Gesamtmasse 305.00 kg
Länge 0.20 m
Durchmesser 2.80 m
Spannweite 9.00 m
Form Box + pan
Hersteller SPXS
Bus-Typ Starlink
Phasenstatus In Orbit
Besitzer/Staat SPXS/US

Große Konstellationen

Loading constellations...